Location: Hartman Creek State Park
(44.3257°N, 89.2134°W)
Time: 18:08:43
(UTC-05:00)

Cosmos 2263 Rocket - Visible Passes

Search period start: 04 September 2015 00:00
Search period end: 14 September 2015 00:00
Orbit: 822 x 850 km, 71.0° (Epoch: 04 September)

Date Brightness Start Highest point End Pass type
(mag) Time Alt. Az. Time Alt. Az. Time Alt. Az.
04 Sep 4.5 01:42:17 10° NW 01:43:20 15° NW 01:43:20 15° NW visible
04 Sep 3.9 23:41:42 10° N 23:45:04 28° NNE 23:45:04 28° NNE visible
05 Sep 4.5 01:25:33 10° NW 01:26:45 16° NW 01:26:45 16° NW visible
05 Sep 3.8 23:25:05 10° N 23:28:31 27° NNE 23:28:31 27° NNE visible
06 Sep 4.5 01:08:50 10° NW 01:10:12 17° NW 01:10:12 17° NW visible
06 Sep 3.8 23:08:29 10° N 23:12:00 26° NNE 23:12:00 26° NNE visible
07 Sep 4.4 00:52:08 10° NW 00:53:41 19° NW 00:53:41 19° NW visible
07 Sep 3.8 22:51:52 10° N 22:55:30 26° NNE 22:55:30 26° NNE visible
08 Sep 4.4 00:35:26 10° NW 00:37:11 20° NW 00:37:11 20° NW visible
08 Sep 3.8 22:35:17 10° N 22:39:02 25° NE 22:39:02 25° NE visible
09 Sep 4.3 00:18:44 10° NNW 00:20:43 22° NW 00:20:43 22° NW visible
09 Sep 3.8 22:18:41 10° N 22:22:36 24° NE 22:22:36 24° NE visible
10 Sep 4.2 00:02:03 10° NNW 00:04:17 24° NW 00:04:17 24° NW visible
10 Sep 3.8 22:02:06 10° N 22:06:11 23° NE 22:06:11 23° NE visible
10 Sep 4.0 23:45:22 10° NNW 23:47:52 27° NW 23:47:52 27° NW visible
11 Sep 3.8 21:45:31 10° N 21:49:47 22° NE 21:49:48 22° NE visible
11 Sep 3.9 23:28:41 10° NNW 23:31:29 30° NW 23:31:29 30° NW visible
12 Sep 3.8 21:28:57 10° N 21:33:03 20° NE 21:33:25 20° NE visible
12 Sep 3.7 23:12:00 10° NNW 23:15:07 34° NNW 23:15:07 34° NNW visible
13 Sep 3.8 21:12:23 10° N 21:16:18 19° NE 21:17:05 19° NE visible
13 Sep 3.4 22:55:20 10° NNW 22:58:47 38° NNW 22:58:47 38° NNW visible
